KC3OXK Weather Reports


time (UTC)temp
F
wind
direction
speed
knots
gust
knots
rain 1hr
in
rain 24hr
in
rain mn
in
humidity
%
barometer
mb
20260504044530 43 0 0.0 0.0 0.00 0.00 0.00 72 1014.4
20260504043033 44 0 0.0 0.0 0.00 0.00 0.00 73 1014.4
20260504041532 44 0 0.0 0.0 0.00 0.00 0.00 70 1014.3
20260504040033 45 0 0.0 0.0 0.00 0.00 0.00 68 1014.1
20260504034530 45 0 0.0 0.0 0.00 0.00 0.00 63 1014.2
20260504033028 45 0 0.0 0.0 0.00 0.00 0.00 65 1013.9
20260504031528 46 0 0.0 0.0 0.00 0.00 0.00 63 1013.9
20260504030036 47 0 0.0 0.0 0.00 0.00 0.00 60 1013.8
20260504024534 47 0 0.0 0.0 0.00 0.00 0.00 61 1013.9
20260504023031 47 0 0.0 0.0 0.00 0.00 0.00 58 1013.7
20260504021537 48 0 0.0 0.0 0.00 0.00 0.00 57 1013.8
20260504020036 49 0 0.0 0.0 0.00 0.00 0.00 59 1013.7
20260504014530 49 0 0.0 0.0 0.00 0.00 0.00 54 1013.5
20260504013035 50 0 0.0 0.0 0.00 0.00 0.00 52 1013.6
20260504011529 51 0 0.0 0.0 0.00 0.00 0.00 54 1013.5
20260504010030 51 0 0.0 0.0 0.00 0.00 0.00 52 1013.5
20260504004540 53 0 0.0 0.9 0.00 0.00 0.00 49 1013.4
20260504003028 53 0 0.0 0.9 0.00 0.00 0.00 47 1013.4
20260504001534 54 0 0.0 1.7 0.00 0.00 0.00 46 1013.1
20260504000028 55 0 0.0 0.9 0.00 0.00 0.00 45 1012.9
20260503234529 56 0 0.0 4.3 0.00 0.00 0.00 44 1012.6
20260503233030 56 0 0.0 2.6 0.00 0.00 0.00 44 1012.7
20260503231528 57 261 0.9 4.3 0.00 0.00 0.00 44 1012.5
20260503230028 58 0 0.0 3.5 0.00 0.00 0.00 40 1012.4
20260503224529 59 66 0.0 2.6 0.00 0.00 0.00 38 1012.3
20260503223027 60 217 2.6 8.7 0.00 0.00 0.00 35 1012.5
20260503221534 61 135 0.9 7.0 0.00 0.00 0.00 35 1012.3
20260503220036 62 205 0.9 6.1 0.00 0.00 0.00 34 1012.5
20260503214542 62 266 1.7 7.8 0.00 0.00 0.00 35 1012.4
20260503213034 62 335 0.9 7.8 0.00 0.00 0.00 35 1012.4
20260503211532 61 0 1.7 7.0 0.00 0.00 0.00 35 1012.3
20260503210028 61 226 3.5 11.3 0.00 0.00 0.00 37 1012.3
20260503204532 62 213 5.2 14.8 0.00 0.00 0.00 33 1012.2
20260503203028 62 62 1.7 12.2 0.00 0.00 0.00 36 1012.3
20260503201530 63 44 1.7 5.2 0.00 0.00 0.00 34 1012.3
20260503200031 61 231 1.7 7.8 0.00 0.00 0.00 40 1012.5
20260503194529 60 214 0.0 11.3 0.00 0.00 0.00 38 1012.7
20260503193030 61 202 2.6 7.8 0.00 0.00 0.00 34 1013.0
20260503191530 60 183 0.9 7.8 0.00 0.00 0.00 37 1013.2
20260503190038 61 245 2.6 9.6 0.00 0.00 0.00 36 1013.5
20260503184531 59 24 1.7 11.3 0.00 0.00 0.00 38 1013.6
20260503183038 60 250 0.9 9.6 0.00 0.00 0.00 36 1013.8
20260503181549 60 285 1.7 13.9 0.00 0.00 0.00 35 1013.8
20260503180041 59 235 2.6 8.7 0.00 0.00 0.00 36 1013.9
20260503174530 57 213 2.6 11.3 0.00 0.00 0.00 37 1014.1
20260503173029 58 318 0.9 7.8 0.00 0.00 0.00 34 1014.3
20260503171528 58 334 2.6 9.6 0.00 0.00 0.00 39 1014.6
20260503081528 42 0 0.0 1.7 0.00 0.00 0.00 64 1014.2
20260503071528 43 0 0.0 2.6 0.00 0.00 0.00 67 1013.7